Rock Springs, WY

6:56 AM MDT on August 23, 2017 (GMT -0600)
Rock Springs-Sweetwater

Weather History for KRKS - September, 2013

Change the Weather History Date:

Sunday, September 1, 2013

  Actual Average Record
Temperature  
Mean Temperature 70 °F 62 °F  
Max Temperature 86 °F 77 °F 88 °F (1948)
Min Temperature 54 °F 48 °F 32 °F (1973)
Degree Days  
Heating Degree Days 0 4  
Month to date heating degree days 0 4  
Since 1 July heating degree days 1 68  
Cooling Degree Days 5 1  
Month to date cooling degree days 5 1  
Year to date cooling degree days 478 278  
Growing Degree Days 19 (Base 50)    
Moisture  
Dew Point 36 °F    
Average Humidity 35    
Maximum Humidity 54    
Minimum Humidity 15    
Precipitation  
Precipitation T in 0.03 in 1.29 in (1973)
Month to date precipitation T 0.03  
Year to date precipitation 2.20 5.81  
Sea Level Pressure  
Sea Level Pressure 29.95 in    
Wind  
Wind Speed 5 mph (ENE)    
Max Wind Speed 16 mph    
Max Gust Speed 20 mph    
Visibility 10 miles    
Events Rain    
T = Trace of Precipitation, MM = Missing Value Source: NWS Daily Summary

Daily Weather History Graph

Daily Weather History Graph

Search for Another Location

Airport or City:

Trip Planner

Search our weather history database for the weather conditions in past years. The results will help you decide how hot, cold, wet, or windy it might be!

Date:

Astronomy

Sep. 01, 2013 Rise Set
Actual Time 6:42 AM MDT 7:48 PM MDT
Civil Twilight 6:14 AM MDT 8:17 PM MDT
Nautical Twilight 5:40 AM MDT 8:51 PM MDT
Astronomical Twilight 5:04 AM MDT 9:26 PM MDT
Moon 3:05 AM MDT (9/1) 5:29 PM MDT (9/1)
Length of Visible Light 14h 03m
Length of Day
13h 06m
Waning Crescent, 13% of the Moon is Illuminated
Sep 1
Waning Crescent
Sep 5
New
Sep 12
First Quarter
Sep 19
Full
Sep 26
Last Quarter

Hourly Weather History & Observations

Time (MDT) Temp. Dew Point Humidity Pressure Visibility Wind Dir Wind Speed Gust Speed Precip Events Conditions
12:54 AM 64.0 °F 35.1 °F 34% 29.95 in 10.0 mi East 3.5 mph - N/A   Clear
1:54 AM 62.1 °F 36.0 °F 38% 29.94 in 10.0 mi NE 8.1 mph - N/A   Clear
2:54 AM 60.1 °F 36.0 °F 41% 29.95 in 10.0 mi ENE 9.2 mph - N/A   Clear
3:54 AM 59.0 °F 37.0 °F 44% 29.96 in 10.0 mi ENE 6.9 mph - N/A   Clear
4:54 AM 57.0 °F 37.0 °F 47% 29.96 in 10.0 mi East 6.9 mph - N/A   Clear
5:54 AM 55.9 °F 37.0 °F 49% 29.97 in 10.0 mi NE 9.2 mph - N/A   Clear
6:54 AM 54.0 °F 37.0 °F 53% 30.00 in 10.0 mi ENE 9.2 mph - N/A   Clear
7:54 AM 57.9 °F 37.9 °F 47% 30.02 in 10.0 mi East 4.6 mph - N/A   Clear
8:54 AM 59.0 °F 37.9 °F 46% 30.04 in 10.0 mi SE 5.8 mph - N/A   Clear
9:54 AM 66.0 °F 39.9 °F 38% 30.03 in 10.0 mi ENE 5.8 mph - N/A   Clear
10:54 AM 70.0 °F 41.0 °F 35% 30.01 in 10.0 mi ENE 4.6 mph - N/A   Clear
11:54 AM 75.0 °F 42.1 °F 31% 30.00 in 10.0 mi ENE 4.6 mph - N/A   Clear
12:54 PM 77.0 °F 41.0 °F 28% 29.98 in 10.0 mi Calm Calm - N/A   Clear
1:54 PM 81.0 °F 37.0 °F 21% 29.95 in 10.0 mi Calm Calm - N/A   Clear
2:54 PM 82.0 °F 33.1 °F 17% 29.94 in 10.0 mi Calm Calm - N/A   Clear
3:54 PM 84.0 °F 32.0 °F 15% 29.91 in 10.0 mi Calm Calm - N/A   Clear
4:54 PM 84.9 °F 32.0 °F 15% 29.90 in 10.0 mi Calm Calm - N/A   Clear
5:54 PM 84.0 °F 32.0 °F 15% 29.89 in 10.0 mi Variable 3.5 mph - N/A   Clear
6:54 PM 82.0 °F 32.0 °F 16% 29.89 in 10.0 mi Calm Calm - 0.00 in Rain Light Rain
7:54 PM 79.0 °F 33.1 °F 19% 29.90 in 10.0 mi WSW 8.1 mph - 0.00 in   Clear
8:54 PM 77.0 °F 34.0 °F 21% 29.91 in 10.0 mi WSW 6.9 mph - N/A   Clear
9:54 PM 75.0 °F 34.0 °F 22% 29.91 in 10.0 mi WSW 5.8 mph - N/A   Clear
10:54 PM 73.0 °F 34.0 °F 24% 29.91 in 10.0 mi West 4.6 mph - N/A   Partly Cloudy
11:54 PM 71.1 °F 34.0 °F 26% 29.91 in 10.0 mi West 5.8 mph - N/A   Clear